Simultaneous Nadir Overpasses (SNOs) Predictions

Prediction of SNOs between METOP-B and NOAA-19 Satellite Orbit:

Table of predicted SNOs for the next 14.0 days since TLE Epoch: 9/10/2022
Index Date (METOP-B) Time (METOP-B) Lat,Lon (METOP-B) SZA (METOP-B ) Date (NOAA-19) Time (NOAA-19) Lat,Lon (NOAA-19) SZA (NOAA-19 ) Distance(km) Time Diff (sec)
1 09/12/2022 20:14:44 80.88, -90.02 78.54 09/12/2022 20:13:41 80.89, -89.85 78.54 3.11 63
2 09/12/2022 21:05:24 -80.89, 77.56 101.42 09/12/2022 21:04:43 -80.88, 77.70 101.43 2.48 41
3 09/12/2022 21:56:05 80.89,-115.17 78.59 09/12/2022 21:55:40 80.88,-115.07 78.59 1.95 25
4 09/12/2022 22:46:46 -80.88, 52.06 101.41 09/12/2022 22:46:43 -80.89, 52.11 101.41 0.97 3
5 09/12/2022 23:37:27 80.88,-140.68 78.60 09/12/2022 23:37:40 80.89,-140.65 78.61 0.92 13
6 09/13/2022 00:28:07 -80.89, 26.90 101.36 09/13/2022 00:28:42 -80.88, 26.89 101.36 1.16 35
7 09/13/2022 01:18:48 80.89,-165.84 78.65 09/13/2022 01:19:39 80.88,-165.86 78.66 0.85 51
8 09/13/2022 02:09:29 -80.88, 1.40 101.36 09/13/2022 02:10:42 -80.88, 1.30 101.34 1.61 73
9 09/24/2022 02:32:01 80.88, 175.68 82.97 09/24/2022 02:30:58 80.89, 175.80 82.97 2.49 63



Historial Predications of SNOs between METOP-B and NOAA-19
